TBPBTNCM

Guest
Details From TBPB - Barbados/Grantley Adams Intl
To TNCM - St Maarten - Princess Juliana Intl
Flight Number -
Tags generated
Created
Modified
Stats Distance 371 nm / 688 km
Max Altitude 24,500 ft / 7,468 m
Waypoints 4
Social Downloads 2
Likes 0
Share VATSIM

Download

Looking for another format? Having issues loading an existing format? Contact us
Advertisement - Login to hide

Notes

Basic altitude profile: - Ascent Rate: 2500ft/min - Ascent Speed: 250kts - Cruise Altitude: 35000ft - Cruise Speed: 420kts - Descent Rate: 1500ft/min - Descent Speed: 250kts Options: - Use NATs: no - Use PACOTS: no - Use low airways: no - Use high airways: yes

Route

TBPB BGI UA632 ANU TNCM

ID Type Via Altitude Latitude Longitude Leg Dist Tot Dist Heading (true) Name
O TBPB APT - 0 ft / 0 m 13.07461˚ -59.49221˚ - 0 nm - Barbados/Grantley Adams Intl
BGI VOR - 100 ft / 30 m 13.07506˚ -59.48383˚ 0 nm 0 nm 87° / 87° ADAMS VOR-DME
ANU NDB UA632 (AWY-HI) 24,500 ft / 7,468 m 17.12588˚ -61.80017˚ 277 nm 278 nm 331° / 331° V C BIRD NDB
O TNCM APT - 0 ft / 0 m 18.04089˚ -63.10897˚ 92 nm 371 nm 306° / 306° St Maarten - Princess Juliana Intl

Altitude Profile

Advertisement - Login to hide

Weather


0- 5 10 15 20 25 30 35+ Temperature / ° C

Clouds and Precipitation
Forecast for 2017-12-16 00:00 UTC. Updated an hour ago

Ground ~20,000 ft ~40,000 ft Winds

TBPB

Details ICAO TBPB (BGI)
Name Barbados/Grantley Adams Intl
Region Barbados
Timezone America/Barbados (UTC-4.0)
Stats Elevation 168 ft / 51 m (AMSL)
Location 13.074614° -59.492206°
Runways 1
Magnetic Variation 15.612° W

METAR

TBPB 152000Z 09014KT 9999 SCT022 28/23 Q1013 NOSIG

Decode

TAF

Not found

Departure Runways

ID Width Length Bearing (true) Bearing (mag) Surface Threshold Offset Overrun Length
09 148 ft / 45 m 11,924 ft / 3,635 m 75.84° 91.45° Asphalt 0 ft / 0 m 174 ft / 53 m
27 148 ft / 45 m 11,924 ft / 3,635 m 255.85° 271.46° Asphalt 0 ft / 0 m 0 ft / 0 m

TNCM

Details ICAO TNCM (SXM)
Name St Maarten - Princess Juliana Intl
Region Caribbean Netherlands, Aruba, Curaçao, Sint Maarten
Timezone Unknown (UTC+0.0)
Stats Elevation 12 ft / 4 m (AMSL)
Location 18.040889° -63.108974°
Runways 1
Magnetic Variation 14.325° W

METAR

TNCM 152000Z 06012KT 010V090 9999 SCT021 29/21 Q1016 NOSIG RMK A3002

Decode

TAF

TAF TNCM 151720Z 1518/1618 07014G20KT P6SM VCSH SCT022 FM161000 05017KT P6SM VCSH SCT018 SCT040

Decode

Destination Runways

ID Width Length Bearing (true) Bearing (mag) Surface Threshold Offset Overrun Length
10 148 ft / 45 m 7,464 ft / 2,275 m 81.43° 95.76° Asphalt 0 ft / 0 m 151 ft / 46 m
28 148 ft / 45 m 7,464 ft / 2,275 m 261.44° 275.77° Asphalt 397 ft / 121 m 0 ft / 0 m

Popular Alternatives